CATSAT-2 (44033 NORAD) Tracking and Keplerian Element Data

This shows tracking and keplerian element data for the satellite.

Feedback or suggestion? Click here.




ElementValue
Catalog44033
NameCATSAT-2
Epoch Orbit314
Epoch Day51.83328429
Epoch Year2019
RAAN219.6822
Inclination51.6384
Eccentricity0.0005259
Argument of Perigee73.5997
Mean Anonmoly286.5571
Mean Motion15.54099779
Decay Rate6.269E-05
L11 44033U 98067PZ 19051.83328429 .00006269 00000-0 10196-3 0 9992
L22 44033 51.6384 219.6822 0005259 73.5997 286.5571 15.54099779 3142

Live tracking and technical data element details for CATSAT-2 (NORAD 44033). CATSAT-2 can be tracked NOW for your location showing map with azimuth and elevation plus other details from your city location.

Track the satellite on the map from your city or location and see movement details for azimuth, elevation, latitude, longitude, range, height, and movement on the map or in text.







IsCatalogInMostPopularTable: catalog: 44033, numindb: 8
Update: records affected: 1



GetName: 44033 CATSAT-2

Hit Count: updated at: Thu, 21 Feb 2019 11:45:32 GMT